TIME,DELAY(SENSOR),PRES,OXYGEN,RAWTEMP,T(OPTODE),TCPHASE,FLUOR,BETA(BETA700),BETA(BETA412),BETA(BETA440),CDOM,C(CSC),ED(ED412.40),ED(ED444.00),ED(ED489.70),ED(ED554.30),LU(LU411.80),LU(LU443.40),LU(LU489.60),LU(LU554.10),COMP,TILTX,TILTY,CHECK
1355369852,5812,885.2199707031250000,44.7900505065918000,664.0485229492188000,4.4945960044860840,54.3321800231933600,53,101,84,78,81,15190,2147753033,2147424877,2148009115,2147874651,2147642011,2147056448,2148256100,2147193901,525,4,13,12109
1355373448,5806,958.9299926757812000,48.0734291076660160,671.3256225585938000,4.2543978691101070,53.9520301818847660,52,100,87,79,81,15179,2147757979,2147423771,2148011355,2147876425,2147646793,2147060187,2148264740,2147195675,1428,4,13,21938
1355377048,5807,971.6300048828125000,49.2048416137695300,673.0255737304688000,4.1982002258300780,53.8178596496582000,54,100,89,80,81,15192,2147763081,2147425353,2148009353,2147873097,2147644214,2147054948,2148261092,2147195236,102,4,13,8315
1355380648,5807,972.6099853515625000,49.2320594787597660,672.9180297851562000,4.2017560005187990,53.8134613037109400,52,101,89,80,82,15192,2147755840,2147422464,2148007817,2147875593,2147645028,2147056064,2148266057,2147200896,3424,4,13,56902
1355384248,5809,973.5999755859375000,48.7740097045898440,674.3129882812500000,4.1556148529052730,53.8969993591308600,52,101,85,78,80,15190,2147754377,2147421366,2148010276,2147873225,2147647588,2147059373,2148261741,2147198784,3223,4,13,25223
1355387848,5812,980.7000122070312000,49.0701217651367200,675.3922729492188000,4.1199021339416500,53.8653793334960940,53,98,89,79,80,15188,2147755008,2147423378,2148011309,2147874816,2147644077,2147057426,2148263433,2147196461,25,5,13,18561
1355391448,5806,975.5300292968750000,49.4003601074218750,676.3795166015625000,4.0872287750244140,53.8302917480468750,53,99,89,78,81,15170,2147754907,2147423680,2148012617,2147873115,2147644635,2147060160,2148262747,2147195090,127,4,13,59007
1355395048,5808,971.4099731445312000,49.5576210021972660,678.3784790039062000,4.0210227966308590,53.8327407836914060,52,98,88,79,80,15166,2147757824,2147420544,2148010048,2147874496,2147644352,2147053814,2148258322,2147192530,212,4,13,60838
1355398648,5808,973.1799926757812000,49.8785514831543000,678.2885131835938000,4.0240077972412110,53.7914886474609400,52,98,88,79,81,15168,2147755026,2147424530,2148008768,2147873481,2147644361,2147060370,2148262884,2147195200,3572,4,13,56788
1355402248,5808,980.3699951171875000,49.5266990661621100,677.2620849609375000,4.0580010414123535,53.8235816955566400,53,98,88,80,81,15162,2147755894,2147422930,2148012150,2147873773,2147643492,2147055835,2148260242,2147194550,69,4,13,11156
1355405848,5810,992.8699951171875000,49.2310600280761700,675.6126708984375000,4.1126079559326170,53.8440895080566400,53,99,87,78,80,15156,2147755693,2147425408,2148013010,2147876589,2147645284,2147051565,2148264502,2147197796,52,4,13,40844
1355409448,5811,995.0300292968750000,49.0963783264160160,675.3496704101562000,4.1213130950927730,53.8601913452148440,51,99,90,80,81,15161,2147754733,2147422893,2148011492,2147877046,2147642852,2147053184,2148263716,2147195062,82,4,13,26304
1355413048,5807,992.1699829101562000,47.9074783325195300,674.4935302734375000,4.1496472358703610,54.0205307006835940,53,100,88,79,81,15161,2147758866,2147421668,2148007945,2147876077,2147643657,2147053869,2148257819,2147195081,112,4,13,56455
1355416648,5809,992.8800048828125000,47.8044586181640600,673.8095092773438000,4.1722741127014160,54.0256004333496100,53,100,86,80,81,15160,2147754889,2147425664,2148013156,2147874624,2147645202,2147049307,2148260626,2147196726,116,4,13,20194
1355420248,5808,991.1400146484375000,47.7131805419921900,674.0399780273438000,4.1646499633789060,54.0367698669433600,52,98,86,78,82,15162,2147755931,2147426166,2148008777,2147873865,2147643209,2147057069,2148259858,2147195200,458,4,13,23554
1355423848,5805,994.6799926757812000,47.5424003601074200,674.0878295898438000,4.1630668640136720,54.0616188049316400,53,122,88,80,81,15159,2147758509,2147421586,2148010212,2147874157,2147642578,2147056054,2148260141,2147191862,181,4,13,52291
1355427448,5806,995.0300292968750000,47.5944900512695300,673.9912719726562000,4.1662597656250000,54.0574989318847660,53,98,87,79,81,15159,2147752502,2147422400,2148010240,2147877083,2147642523,2147056246,2148261467,2147193380,3578,4,13,65188
1355431048,5808,991.1799926757812000,48.3398399353027340,675.5510253906250000,4.1146550178527830,53.9711494445800800,53,98,86,79,82,15160,2147757083,2147421174,2148007186,2147879049,2147643766,2147055835,2148263469,2147194166,23,4,13,40653
1355434648,5811,986.5300292968750000,48.6442794799804700,676.6193237304688000,4.0792870521545410,53.9426116943359400,52,99,88,80,81,15157,2147758445,2147422875,2148010477,2147876909,2147647113,2147051510,2148264521,2147192201,3366,4,13,23114
1355438248,5809,996.2500000000000000,49.3362312316894500,677.1243286132812000,4.0625648498535160,53.8507614135742200,52,99,87,79,81,15159,2147757430,2147423533,2148007872,2147875245,2147645531,2147056822,2148261028,2147192530,3389,4,13,16868
1355441848,5808,991.4400024414062000,48.8343887329101560,675.9157714843750000,4.1025772094726560,53.9023399353027340,52,100,86,79,81,15159,2147755849,2147423926,2148008100,2147874678,2147643154,2147059044,2148266724,2147194404,41,4,13,47789
1355445448,5807,983.9000244140625000,48.9318084716796900,676.5966186523438000,4.0800380706787110,53.9002914428710940,53,100,91,78,83,15158,2147755995,2147425892,2148009856,2147876699,2147645558,2147063305,2148263588,2147199140,3227,4,13,56270
1355449048,5809,986.2399902343750000,48.9020385742187500,676.9636230468750000,4.0678877830505370,53.9074897766113300,53,100,87,79,81,15157,2147759296,2147421430,2148009609,2147876699,2147645897,2147059373,2148261330,2147195931,209,4,13,36026
1355452648,5809,997.3099975585938000,49.2836303710937500,676.5130004882812000,4.0828080177307130,53.8519706726074200,52,98,86,79,80,15156,2147760365,2147421897,2148011163,2147872868,2147645613,2147056192,2148261129,2147198774,3195,4,13,17544
1355456248,5811,993.9500122070312000,47.6868515014648440,675.7996215820312000,4.1064219474792480,54.0616302490234400,53,99,85,79,81,15157,2147755593,2147423360,2148011337,2147874294,2147644662,2147052096,2148262857,2147199899,42,5,13,60758
1355459848,5813,1002.9199829101562000,48.7591400146484400,675.4378051757812000,4.1183991432189940,53.9078407287597660,52,98,88,80,81,15151,2147756562,2147424576,2148007314,2147869952,2147642688,2147058715,2148265344,2147196498,529,4,13,44966
1355463448,5808,999.8800048828125000,48.5748291015625000,675.0076293945312000,4.1326351165771480,53.9283981323242200,52,98,89,79,81,15152,2147754742,2147420708,2148011867,2147878299,2147644736,2147055250,2148266340,2147195254,101,4,13,44933
1355467048,5810,990.6699829101562000,48.3547782897949200,676.0656127929688000,4.0976181030273440,53.9754905700683600,53,99,90,78,81,15154,2147761481,2147424274,2148011574,2147874066,2147642724,2147053129,2148262025,2147195721,698,4,13,51523
1355470648,5806,990.5399780273438000,48.5177993774414060,676.4498901367188000,4.0848979949951170,53.9559516906738300,53,99,86,80,82,15151,2147758729,2147422701,2148011456,2147875072,2147645851,2147055808,2148260818,2147194157,507,4,13,6388
1355474248,5811,991.0900268554688000,48.5795097351074200,676.4904174804688000,4.0835552215576170,53.9497108459472660,52,95,92,79,82,15155,2147757037,2147423616,2148010532,2147876269,2147645348,2147062390,2148263533,2147197540,3383,4,13,22056
1355477848,5808,971.4600219726562000,48.8617706298828100,677.8264160156250000,4.0393118858337400,53.9286689758300800,53,100,87,79,81,15152,2147754240,2147422317,2148010806,2147875986,2147642770,2147054427,2148259520,2147194843,2955,4,13,3712
1355481448,5810,981.8900146484375000,49.4042510986328100,679.2402954101562000,3.9924681186676025,53.8673706054687500,52,98,84,78,81,15153,2147757686,2147422363,2148009773,2147876050,2147643254,2147060461,2148262692,2147195392,93,4,13,33452
1355485048,5807,981.0499877929688000,49.5332603454589840,679.1057739257812000,3.9969251155853270,53.8521499633789060,53,100,90,79,82,15150,2147758317,2147420745,2148006994,2147874816,2147646390,2147058486,2148265078,2147196443,961,4,13,61061
1355488648,5808,982.5300292968750000,49.3607711791992200,679.2418823242188000,3.9924159049987793,53.8731307983398440,52,102,83,80,79,15151,2147754998,2147421869,2148010697,2147875867,2147643218,2147056621,2148268617,2147197293,581,4,13,42329
1355492248,5809,991.5200195312500000,49.2598495483398440,678.3054809570312000,4.0234432220458980,53.8762817382812500,53,97,88,79,81,15151,2147759707,2147422738,2148009152,2147877229,2147644352,2147056137,2148262985,2147198427,57,4,13,39610
1355495848,5806,994.9799804687500000,48.8430900573730500,677.1444702148438000,4.0618968009948730,53.9212417602539060,52,99,87,79,81,15150,2147755081,2147423917,2148011145,2147874486,2147644333,2147059876,2148264539,2147195757,172,4,13,8132
1355499448,5810,1005.7999877929688000,48.3391189575195300,675.5476074218750000,4.1147651672363280,53.9678115844726560,53,99,85,79,82,15147,2147757284,2147423177,2148011245,2147875017,2147643172,2147055981,2148261266,2147194752,309,4,13,30849
1355503048,5808,1011.7100219726562000,47.8262596130371100,673.2307739257812000,4.1914119720458980,54.0125885009765600,52,101,88,80,81,15147,2147755090,2147423643,2148011712,2147876918,2147641984,2147064000,2148265728,2147195529,157,4,13,20473
1355506648,5810,1006.2100219726562000,47.0011405944824200,673.1240234375000000,4.1949458122253420,54.1293983459472660,53,102,86,80,81,15141,2147754669,2147419227,2148008576,2147873472,2147642496,2147065581,2148258075,2147197860,374,4,13,6352
1355510248,5808,1004.8800048828125000,47.5174789428710940,673.3703002929688000,4.1868000030517580,54.0607185363769500,52,101,88,78,82,15144,2147755712,2147421924,2148010276,2147875520,2147644105,2147055625,2148263113,2147194057,177,4,13,28718
1355513848,5811,996.5900268554688000,47.8032302856445300,674.2957153320312000,4.1561908721923830,54.0323410034179700,53,99,90,79,81,15142,2147757165,2147423286,2148009819,2147874203,2147643538,2147057133,2148263661,2147199030,7,4,13,35869
1355514356,5810,1000.2100219726562000,47.8363800048828100,674.8095703125000000,4.1391849517822270,54.0301094055175800,53,102,84,78,81,15171,2147755547,2147420681,2148011419,2147876388,2147644553,2147055542,2148263680,2147195401,3547,4,13,40695
